Hourly Data Report for March 18, 2021

KUGAARUK CLIMATE
NUNAVUT
Current Station Operator: ECCC - MSC

68°32'15.060" N
89°47'47.020" W
15.80 m
2303094
71407
NBB

Download Data

Hourly Data (March 2021)
Hourly Data Report for March 18, 2021
TIME
LST
Temp Definition
°C
Dew Point Definition
°C
Rel Hum Definition
%
Precip. Amount Definition
mm

Wind Dir Definition
10's deg

Wind Spd Definition
km/h
Visibility Definition
km
Stn Press Definition
kPa
Hmdx Definition


Wind Chill Definition


Weather Definition


00:00 -25.8 -29.5 71 0.0 23 37   100.76   -41 LegendNANA
01:00 -26.1 -29.6 73 0.0 23 44   100.76   -43 LegendNANA
02:00 -26.3 -29.7 73 0.0 23 45   100.77   -43 LegendNANA
03:00 -26.0 -29.5 72 0.0 23 43   100.82   -43 LegendNANA
04:00 -26.3 -29.8 72 0.2 23 41   100.86   -43 LegendNANA
05:00 -25.7 -29.0 73 0.0 24 44   100.79   -42 LegendNANA
06:00 -25.1 -28.9 71 0.0 22 36   100.81   -40 LegendNANA
07:00 -24.3 -28.1 71 0.0 23 36   100.86   -39 LegendNANA
08:00 -23.9 -28.0 69 0.0 21 32   100.85   -38 LegendNANA
09:00 -23.3 -27.6 68 0.0 21 35   100.87   -38 LegendNANA
10:00 -22.0 -26.1 69 0.0 22 45   100.79   -37 LegendNANA
11:00 -21.7 -26.2 67 0.0 22 34   100.83   -35 LegendNANA
12:00 -20.7 -25.3 67 0.0 22 36   100.82   -34 LegendNANA
13:00 -21.1 -25.8 66 0.0 21 26   100.87   -33 LegendNANA
14:00 -21.1 -25.8 66 0.0 23 22   100.87   -32 LegendNANA
15:00 -21.3 -26.1 66 0.0 22 27   100.88   -34 LegendNANA
16:00 -22.2 -26.9 65 0.0 21 22   100.90   -34 LegendNANA
17:00 -23.2 -27.4 68 0.0 21 20   100.92   -35 LegendNANA
18:00 -22.5 -26.7 69 0.0 23 25   100.91   -35 LegendNANA
19:00 -23.1 -27.2 69 0.0 22 23   100.91   -35 LegendNANA
20:00 -23.6 -27.8 69 0.0 21 17   100.88   -34 LegendNANA
21:00 -23.9 -28.0 69 0.0 21 17   100.86   -35 LegendNANA
22:00 -24.3 -28.3 69 0.0 22 16   100.88   -35 LegendNANA
23:00 -24.3 -28.1 71 0.0 26 15   100.92   -34 LegendNANA

Notes on Data Quality.

Legend

  • E = Estimated
  • M = Missing
  • NA = Not Available*
  • [empty] = Indicates an unobserved value
Date modified: